Regional Weather Roundup
Issued by NWS

Home | Current Version | Previous Version | Graphics & Text | Print | Product List | Glossary On
Versions: 1 2 3 4 5 6 7 8 9 10 11 12 13 14 15 16 17 18 19 20 21 22 23 24 25 26 27 28 29 30 31 32 33 34 35 36 37 38 39 40 41 42 43 44 45 46 47 48 49 50
346
ASUS43 KLOT 301903
RWRIL

ILLINOIS REGIONAL WEATHER ROUNDUP
NATIONAL WEATHER SERVICE CHICAGO/ROMEOVILLE IL
200 PM CDT FRI SEP 30 2016

NOTE: "FAIR" INDICATES FEW OR NO CLOUDS BELOW 12,000 FEET WITH NO
SIGNIFICANT WEATHER AND/OR OBSTRUCTIONS TO VISIBILITY.

* THESE STATIONS ARE NOT UNDER NWS QUALITY CONTROL. THEY ALSO MAY NOT
  REPORT WEATHER SUCH AS PRECIPITATION OR FOG.

ILZ001-002-007-009-015-016-024-302000-
NORTHWEST ILLINOIS

CITY           SKY/WX    TMP DP  RH WIND       PRES   REMARKS
MOLINE         CLOUDY    66  57  72 NW10      30.14F
STERLING*      CLOUDY    67  59  75 NE8       30.12F
$$

ILZ003-004-008-010-011-017-018-302000-
NORTH CENTRAL ILLINOIS

CITY           SKY/WX    TMP DP  RH WIND       PRES   REMARKS
ROCKFORD       CLOUDY    70  59  68 NE15      30.13F
FREEPORT*      CLOUDY    63  58  82 N8        30.16F
ROCHELLE*      CLOUDY    66  59  77 NE15      30.12F
$$

ILZ005-006-012>014-019>023-302000-
NORTHEAST ILLINOIS

CITY           SKY/WX    TMP DP  RH WIND       PRES   REMARKS
CHICAGO-OHARE  CLOUDY    64  59  83 NE13      30.09F
CHICAGO-MIDWAY CLOUDY    66  59  78 NE14      30.08F
AURORA         CLOUDY    65  60  84 NE13      30.10F
LANSING*       CLOUDY    64  61  91 NE12      30.07F
JOLIET*        CLOUDY    66  61  83 NE13      30.09F
WAUKEGAN       CLOUDY    63  60  90 NE12G17   30.12F
DUPAGE AIRPORT CLOUDY    64  59  83 NE16      30.09F
KANKAKEE*      CLOUDY    65  60  83 N9        30.06F
WHEELING       CLOUDY    65  59  81 NE10G18   30.12F
MORRIS*        CLOUDY    65  59  80 NE6       30.07F
ROMEOVILLE*    CLOUDY    64  62  93 NE14      30.08F
NORTHERLY ISL    N/A     62  58  86 NE10        N/A
$$

LMZ740>746-302000-
SOUTHERN LAKE MICHIGAN

STATION/POSITION SKY/WX   TEMP    WIND        PRES    VSBY  WAVE
                          AIR SEA DIR/SP/G                  HT/PER
                          (F)     (DEG/KT/KT) (MB)    (MI)  (FT/S)
SOUTHERN BUOY              63 67   60/ 19/ 23 1020.1          5/ 6
WILMETTE HARBOR            62 58   70/ 12/ 16   N/A           6/ 6
HARRISON CRIB              64      40/ 18/ 19   N/A
BURNHAM HARBOR             62     360/  7/ 13   N/A
CALUMET HARBOR             64      10/  9/ 13 1018.5F
BURNS HARBOR               64      40/ 16/ 18 1018.3F
MICHIGAN CITY              62      20/ 15/ 17   N/A
MICHIGAN CITY 6N           63 64   40/ 14/ 19   N/A           6/ 7
ST. JOSEPH                 56 51   20/ 10/ 14 1018.7F         4/ 6
$$

ILZ025>027-034>036-040-047-049-050-058-095>099-302000-
WEST-CENTRAL ILLINOIS

CITY           SKY/WX    TMP DP  RH WIND       PRES   REMARKS
QUINCY         CLOUDY    64  57  78 N13       30.13F
MACOMB*        CLOUDY    66  58  76 N13       30.15F
JACKSONVILLE*  CLOUDY    65  59  80 N10       30.10F
PITTSFIELD*    CLOUDY    65  59  82 N7        30.12F
$$

ILZ028>032-037-038-041>044-048-051>054-059>061-302000-
CENTRAL ILLINOIS

CITY           SKY/WX    TMP DP  RH WIND       PRES   REMARKS
PONTIAC        CLOUDY    65  63  92 NE14      30.07F
BLOOMINGTON    CLOUDY    64  61  90 N12       30.07F
DECATUR        CLOUDY    66  60  81 N7        30.05F
PEORIA         CLOUDY    62  62 100 NW6       30.09F
LACON*         CLOUDY    65  62  89 N6        30.08F
LINCOLN*       CLOUDY    64  63  94 N6        30.07F
SPRINGFIELD    CLOUDY    65  61  87 N12       30.08F
TAYLORVILLE    NOT AVBL
$$

ILZ033-039-045-046-055>057-062-063-302000-
EAST-CENTRAL ILLINOIS

CITY           SKY/WX    TMP DP  RH WIND       PRES   REMARKS
CHAMPAIGN      LGT RAIN  64  60  87 N13       30.03F FOG
RANTOUL*       CLOUDY    67  62  85 NE10      30.03F
MATTOON        CLOUDY    65  59  81 N14       30.02F
PARIS*         CLOUDY    67  62  83 N3        30.01F
$$

ILZ079-100>102-302000-
SOUTHWEST ILLINOIS

CITY           SKY/WX    TMP DP  RH WIND       PRES   REMARKS
ALTON          CLOUDY    66  57  72 N12       30.08F
BELLEVILLE     MOSUNNY   70  60  71 N8        30.05F
CAHOKIA*       CLOUDY    68  56  65 N13       30.07F
SPARTA*        CLOUDY    66  58  76 N6        30.06F
$$

ILZ064>066-069>071-074>076-080>082-084>086-088>090-092>094-302000-
SOUTH-CENTRAL ILLINOIS

CITY           SKY/WX    TMP DP  RH WIND       PRES   REMARKS
CARBONDALE     CLOUDY    64  63  96 N9        30.04F
EFFINGHAM*     PTSUNNY   69  61  76 NW8       30.03F
MARION         CLOUDY    63  63 100 NW12      30.05F
MT. VERNON     CLOUDY    66  57  72 NW5       30.04F
SALEM*         CLOUDY    65  60  82 CALM      30.04F
METROPOLIS*    CLOUDY    65  62  90 NW7       30.04F
$$

ILZ067-068-072-073-078-083-087-091-302000-
SOUTHEAST ILLINOIS

CITY           SKY/WX    TMP DP  RH WIND       PRES   REMARKS
LAWRENCEVILLE  CLOUDY    68  56  65 CALM      30.00F
FLORA*         MOSUNNY   68  61  80 N8        30.02F
FAIRFIELD*     CLOUDY    67  60  78 NW6       30.00F
HARRISBURG*    MOSUNNY   69  60  74 NW6       30.02F
ROBINSON*      CLOUDY    69  56  65 NW3       30.01F
CARMI*         LGT RAIN  66  60  83 E7        30.00F
$$

ABBREVIATIONS USED IN REMARKS
   TC - TEMPERATURE IN CELSIUS
  WCI - WIND CHILL INDEX
   HX - HEAT INDEX
  VSB - VISIBILITY
$$





USA.gov is the U.S. government's official web portal to all federal, state and local government web resources and services.